This is the latest recevied weather packets stored in our database for station/object KR0L-13. If no packets are shown the sender has not sent any weather packets the latest 10 day(s).
| Time | Temp. | Humidity | Pressure | Rain* | Wind** | Luminosity | Snow |
|---|---|---|---|---|---|---|---|
| 1788191137 | 32.78° C | 40% | 1015.8 hPa | 0 mm | - | - | - |
| 1788190520 | 32.22° C | 40% | 1015.8 hPa | 0 mm | - | - | - |
| 1788189920 | 31.67° C | 42% | 1015.7 hPa | 0 mm | - | - | - |
| 1788189320 | 31.11° C | 44% | 1015.7 hPa | 0 mm | - | - | - |
| 1788188720 | 30.56° C | 44% | 1015.8 hPa | 0 mm | - | - | - |
| 1788188120 | 30° C | 45% | 1015.7 hPa | 0 mm | - | - | - |
| 1788187520 | 30° C | 47% | 1015.8 hPa | 0 mm | - | - | - |
| 1788186920 | 28.89° C | 48% | 1016 hPa | 0 mm | - | - | - |
| 1788186320 | 28.33° C | 50% | 1016.1 hPa | 0 mm | - | - | - |
| 1788185720 | 28.33° C | 51% | 1016.1 hPa | 0 mm | - | - | - |
| 1788185122 | 28.33° C | 50% | 1016.3 hPa | 0 mm | - | - | - |
| 1788184520 | 28.33° C | 51% | 1016.3 hPa | 0 mm | - | - | - |
| 1788183920 | 27.78° C | 52% | 1016.1 hPa | 0 mm | - | - | - |
| 1788183320 | 27.22° C | 53% | 1016.1 hPa | 0 mm | - | - | - |
| 1788182720 | 27.22° C | 55% | 1016.2 hPa | 0 mm | - | - | - |
| 1788182120 | 26.11° C | 60% | 1016.1 hPa | 0 mm | - | - | - |
| 1788181520 | 26.11° C | 60% | 1016 hPa | 0 mm | - | - | - |
| 1788180926 | 25° C | 61% | 1015.8 hPa | 0 mm | - | - | - |
| 1788180322 | 24.44° C | 62% | 1015.8 hPa | 0 mm | - | - | - |
| 1788179722 | 24.44° C | 60% | 1015.9 hPa | 0 mm | - | - | - |
| 1788179122 | 25° C | 59% | 1015.9 hPa | 0 mm | - | - | - |
| 1788178522 | 25.56° C | 57% | 1015.7 hPa | 0 mm | - | - | - |
| 1788177922 | 25.56° C | 56% | 1015.6 hPa | 0 mm | - | - | - |
| 1788177322 | 26.11° C | 55% | 1015.5 hPa | 0 mm | - | - | - |
| 1788176722 | 26.11° C | 54% | 1015.1 hPa | 0 mm | - | - | - |
* Rain latest hour (hover to see other rain measurements)
** Current wind speed in m/s (hover to see current wind gust speed)